Find Starlink 5449

NORAD ID: 54780 Int'l Des: 2022-175 Owner: SPXS Country: US Constellation: starlink operational
LEOCIRCULAR

当前视图

正在加载3D地球...

About Starlink 5449

Starlink 5449 (NORAD 54780) is a starlink constellation satellite (v1.5) launched Dec 17, 2022 by SPXS of US. It operates in LEO, CIRCULAR orbit with a mass of 305.00 kg.

即将过境

Passes for default location (London). Set your location on the main map for personalized predictions.

高度历史

Loading altitude history...

两行轨道根数

1 54780U 22175Y 26265.47341199 -.00000054 00000-0 95442-5 0 9999
2 54780 53.1608 210.5654 0000920 79.1814 280.9293 15.34389203210041
Epoch: Sep 22, 2026 • Age: 18 hours

当前状态

高度 463.0 km
远地点 / 近地点 N/A
速度 7.64 km/s
星下点 19.50°N, 68.76°W
发射日期 Dec 17, 2022
运行时间 3.7 years
类型 internet

技术详情

分类 Payload
质量 305.00 kg
干质量 290.00 kg
长度 0.20 m
跨度 9.00 m
形状 ? Box + pan
制造商 SPXS
平台类型 Starlink
阶段状态 In Orbit
所有者/国家 SPXS/US

Most Searched